Weather History for St. Francis, KS

Change the Weather History Date:

Saturday, July 27, 2013

  Actual Average Record
Temperature  
Mean Temperature 68 °F -  
Max Temperature 76 °F 90 °F 88 °F (2014)
Min Temperature 59 °F 62 °F 59 °F (2013)
Cooling Degree Days 2    
Growing Degree Days 18 (Base 50)    
Moisture  
Dew Point 54 °F    
Average Humidity 64    
Maximum Humidity 87    
Minimum Humidity 44    
Precipitation  
Precipitation 0.00 in - - ()
Sea Level Pressure  
Sea Level Pressure 30.10 in    
Wind  
Wind Speed 13 mph (ESE)    
Max Wind Speed 25 mph    
Max Gust Speed 31 mph    
Visibility 10 miles    
Events      
Averages and records for this station are not official NWS values.
T = Trace of Precipitation, MM = Missing Value Source: NWS Daily Summary

Daily Weather History Graph

Daily Weather History Graph

Search for Another Location

Airport:

Trip Planner

Search our weather history database for the weather conditions in past years. The results will help you decide how hot, cold, wet, or windy it might be!

Date:

Astronomy

Jul. 27, 2013 Rise Set
Actual Time 6:41 AM CDT 9:04 PM CDT
Civil Twilight 6:11 AM CDT 9:35 PM CDT
Nautical Twilight 5:33 AM CDT 10:13 PM CDT
Astronomical Twilight 4:51 AM CDT 10:54 PM CDT
Moon 11:54 PM CDT (7/27) 12:23 PM CDT (7/27)
Length of Visible Light 15h 24m
Length of Day
14h 23m
Waning Gibbous, 70% of the Moon is Illuminated
Jul 27
Waning Gibbous
Jul 29
Last Quarter
Aug 6
New
Aug 14
First Quarter
Aug 20
Full

Hourly Weather History & Observations

Time (CDT) Temp. Dew Point Humidity Pressure Visibility Wind Dir Wind Speed Gust Speed Precip Events Conditions
12:15 AM 70.9 °F 58.5 °F 65% 30.15 in 10.0 mi SSE 11.5 mph - N/A   Clear
12:35 AM 70.2 °F 57.9 °F 65% 30.15 in 10.0 mi SSE 10.4 mph - N/A   Clear
12:55 AM 69.8 °F 56.8 °F 63% 30.15 in 10.0 mi SSE 12.7 mph - N/A   Clear
1:15 AM 70.3 °F 55.9 °F 60% 30.15 in 10.0 mi SSE 16.1 mph - N/A   Clear
1:35 AM 70.0 °F 55.8 °F 61% 30.15 in 10.0 mi South 10.4 mph - N/A   Clear
1:55 AM 68.4 °F 55.8 °F 64% 30.15 in 10.0 mi South 11.5 mph - N/A   Clear
2:15 AM 68.0 °F 55.0 °F 63% 30.14 in 10.0 mi South 11.5 mph - N/A   Clear
2:35 AM 67.8 °F 54.5 °F 62% 30.14 in 10.0 mi South 8.1 mph - N/A   Clear
2:55 AM 65.3 °F 54.7 °F 68% 30.14 in 10.0 mi South 4.6 mph - N/A   Clear
3:15 AM 63.1 °F 54.3 °F 73% 30.13 in 10.0 mi South 6.9 mph - N/A   Clear
3:35 AM 63.1 °F 54.5 °F 73% 30.12 in 10.0 mi South 5.8 mph - N/A   Clear
3:55 AM 63.0 °F 54.0 °F 72% 30.10 in 10.0 mi South 6.9 mph - N/A   Clear
4:15 AM 62.4 °F 53.8 °F 73% 30.10 in 10.0 mi SSE 5.8 mph - N/A   Clear
4:35 AM 60.4 °F 53.6 °F 78% 30.09 in 10.0 mi SE 6.9 mph - N/A   Clear
4:55 AM 62.4 °F 54.0 °F 74% 30.08 in 10.0 mi SSE 9.2 mph - N/A   Clear
5:15 AM 63.0 °F 53.6 °F 71% 30.07 in 10.0 mi South 8.1 mph - N/A   Clear
5:35 AM 63.5 °F 53.4 °F 70% 30.07 in 10.0 mi South 5.8 mph - N/A   Clear
5:55 AM 60.3 °F 52.7 °F 76% 30.07 in 10.0 mi Calm Calm - N/A   Clear
6:15 AM 59.9 °F 53.6 °F 80% 30.09 in 10.0 mi NNE 5.8 mph - N/A   Clear
6:35 AM 60.4 °F 54.5 °F 81% 30.10 in 10.0 mi NNE 8.1 mph - N/A   Clear
6:55 AM 61.3 °F 55.0 °F 80% 30.10 in 10.0 mi East 9.2 mph - N/A   Clear
7:15 AM 62.4 °F 57.0 °F 82% 30.12 in 7.0 mi East 11.5 mph - N/A   Clear
7:35 AM 61.3 °F 57.4 °F 87% 30.11 in 10.0 mi East 17.3 mph 20.7 mph N/A   Clear
7:55 AM 61.3 °F 56.7 °F 85% 30.11 in 10.0 mi East 23.0 mph 27.6 mph N/A   Clear
8:15 AM 61.7 °F 55.9 °F 81% 30.10 in 10.0 mi ESE 24.2 mph 27.6 mph N/A   Clear
8:55 AM 62.4 °F 55.0 °F 77% 30.10 in 10.0 mi ESE 23.0 mph 31.1 mph N/A   Scattered Clouds
9:15 AM 62.8 °F 55.4 °F 77% 30.09 in 10.0 mi ESE 23.0 mph 28.8 mph N/A   Mostly Cloudy
9:35 AM 64.0 °F 55.4 °F 73% 30.10 in 10.0 mi ESE 24.2 mph 28.8 mph N/A   Overcast
9:55 AM 65.7 °F 55.6 °F 70% 30.09 in 10.0 mi ESE 24.2 mph - N/A   Mostly Cloudy
10:15 AM 66.7 °F 55.6 °F 67% 30.10 in 10.0 mi ESE 21.9 mph 26.5 mph N/A   Scattered Clouds
10:35 AM 68.7 °F 55.4 °F 62% 30.10 in 10.0 mi ESE 21.9 mph 26.5 mph N/A   Scattered Clouds
10:55 AM 70.0 °F 55.0 °F 59% 30.09 in 10.0 mi ESE 19.6 mph 27.6 mph N/A   Clear
11:15 AM 70.9 °F 55.2 °F 58% 30.10 in 10.0 mi ESE 19.6 mph 26.5 mph N/A   Clear
11:35 AM 71.4 °F 54.7 °F 55% 30.10 in 10.0 mi East 19.6 mph 24.2 mph N/A   Scattered Clouds
11:55 AM 71.8 °F 54.3 °F 54% 30.10 in 10.0 mi East 19.6 mph 26.5 mph N/A   Scattered Clouds
12:15 PM 72.3 °F 54.0 °F 52% 30.12 in 10.0 mi East 19.6 mph 26.5 mph N/A   Scattered Clouds
12:35 PM 72.9 °F 53.6 °F 51% 30.12 in 10.0 mi East 21.9 mph - N/A   Scattered Clouds
12:55 PM 70.3 °F 53.4 °F 55% 30.12 in 10.0 mi East 21.9 mph 27.6 mph N/A   Mostly Cloudy
1:15 PM 68.7 °F 52.7 °F 57% 30.12 in 10.0 mi East 24.2 mph 31.1 mph N/A   Mostly Cloudy
1:35 PM 72.0 °F 52.7 °F 51% 30.09 in 10.0 mi ESE 25.3 mph 31.1 mph N/A   Scattered Clouds
1:55 PM 72.1 °F 52.9 °F 51% 30.10 in 10.0 mi East 21.9 mph 27.6 mph N/A   Clear
2:15 PM 73.0 °F 52.9 °F 49% 30.12 in 10.0 mi East 19.6 mph 25.3 mph N/A   Clear
2:35 PM 74.1 °F 52.9 °F 47% 30.14 in 10.0 mi East 16.1 mph 23.0 mph N/A   Scattered Clouds
2:55 PM 71.8 °F 53.2 °F 52% 30.10 in 10.0 mi East 16.1 mph 26.5 mph N/A   Mostly Cloudy
3:15 PM 74.1 °F 53.1 °F 48% 30.09 in 10.0 mi East 19.6 mph 26.5 mph N/A   Scattered Clouds
3:35 PM 73.2 °F 53.2 °F 49% 30.08 in 10.0 mi ESE 19.6 mph 29.9 mph N/A   Scattered Clouds
3:55 PM 74.5 °F 53.1 °F 47% 30.08 in 10.0 mi East 19.6 mph 25.3 mph N/A   Scattered Clouds
4:15 PM 74.3 °F 53.1 °F 47% 30.07 in 10.0 mi East 18.4 mph 25.3 mph N/A   Scattered Clouds
4:35 PM 74.7 °F 53.1 °F 47% 30.05 in 10.0 mi East 19.6 mph 25.3 mph N/A   Clear
4:55 PM 75.2 °F 53.1 °F 46% 30.04 in 10.0 mi East 17.3 mph 23.0 mph N/A   Clear
5:15 PM 76.1 °F 52.9 °F 44% 30.04 in 10.0 mi East 16.1 mph 21.9 mph N/A   Clear
5:35 PM 75.6 °F 52.7 °F 45% 30.04 in 10.0 mi East 17.3 mph 26.5 mph N/A   Clear
5:55 PM 74.8 °F 52.9 °F 46% 30.04 in 10.0 mi East 16.1 mph 23.0 mph N/A   Clear
6:15 PM 74.3 °F 53.2 °F 48% 30.03 in 10.0 mi East 16.1 mph - N/A   Clear
6:35 PM 72.9 °F 53.6 °F 51% 30.03 in 10.0 mi East 16.1 mph - N/A   Clear
6:55 PM 72.5 °F 53.6 °F 51% 30.04 in 10.0 mi ENE 15.0 mph 20.7 mph N/A   Clear
7:15 PM 70.7 °F 53.6 °F 55% 30.05 in 10.0 mi ESE 13.8 mph - N/A   Clear
7:35 PM 70.3 °F 54.5 °F 57% 30.05 in 10.0 mi East 11.5 mph 16.1 mph N/A   Scattered Clouds
7:55 PM 68.9 °F 55.4 °F 62% 30.06 in 10.0 mi East 15.0 mph - N/A   Mostly Cloudy
8:15 PM 68.0 °F 55.6 °F 64% 30.06 in 10.0 mi East 12.7 mph - N/A   Overcast
8:35 PM 67.5 °F 55.4 °F 65% 30.07 in 10.0 mi East 13.8 mph - N/A   Overcast
8:55 PM 66.7 °F 54.7 °F 65% 30.07 in 10.0 mi East 15.0 mph - N/A   Overcast
9:15 PM 65.1 °F 54.5 °F 68% 30.07 in 10.0 mi East 13.8 mph - N/A   Overcast
9:35 PM 64.4 °F 54.0 °F 69% 30.09 in 10.0 mi East 13.8 mph - N/A   Overcast
9:55 PM 64.0 °F 54.0 °F 70% 30.10 in 10.0 mi ENE 11.5 mph - N/A   Overcast
10:15 PM 63.5 °F 54.1 °F 72% 30.11 in 10.0 mi East 11.5 mph - N/A   Overcast
10:35 PM 63.5 °F 54.5 °F 72% 30.10 in 10.0 mi East 10.4 mph - N/A   Overcast
10:55 PM 63.1 °F 54.1 °F 72% 30.10 in 10.0 mi ENE 11.5 mph - N/A   Overcast
11:15 PM 63.0 °F 54.5 °F 74% 30.10 in 10.0 mi ENE 9.2 mph - N/A   Overcast
11:35 PM 62.1 °F 54.5 °F 76% 30.12 in 10.0 mi ESE 9.2 mph - N/A   Overcast
11:55 PM 61.3 °F 53.2 °F 75% 30.11 in 10.0 mi East 11.5 mph - N/A   Overcast